Location: Fluertsh�userhof
(48.7537°N, 10.3850°E)
Time: 05:33:36
(UTC+00:00)

Cosmos 1655 Rocket - Pass Details

Date: 18 September 2020
Orbit: 971 x 1005 km, 82.9° (Epoch: 29 October)

Event Time Altitude Azimuth Distance (km) Brightness Sun altitude
Rises 21:04:24 0° 348° (NNW) 3,686 7.9 -32.7°
Reaches altitude 10° 21:06:56 10° 345° (NNW) 2,738 7.1 -33.0°
Enters shadow 21:12:32 60° 293° (WNW) 1,119 4.4 -33.5°
